Year,Month,Day,Hour,Minute,Value (Times are PST for temperature in C)
2014,04,29,00,00,7.40
2014,04,29,00,01,7.50
2014,04,29,00,02,7.50
2014,04,29,00,03,7.40
2014,04,29,00,04,7.40
2014,04,29,00,05,7.40
2014,04,29,00,06,7.40
2014,04,29,00,07,7.40
2014,04,29,00,08,7.40
2014,04,29,00,09,7.40
2014,04,29,00,10,7.40
2014,04,29,00,11,7.40
2014,04,29,00,12,7.40
2014,04,29,00,13,7.40
2014,04,29,00,14,7.40
2014,04,29,00,15,7.40
2014,04,29,00,16,7.40
2014,04,29,00,17,7.40
2014,04,29,00,18,7.40
2014,04,29,00,19,7.40
2014,04,29,00,20,7.40
2014,04,29,00,21,7.30
2014,04,29,00,22,7.30
2014,04,29,00,23,7.30
2014,04,29,00,24,7.30
2014,04,29,00,25,7.30
2014,04,29,00,26,7.30
2014,04,29,00,27,7.30
2014,04,29,00,28,7.30
2014,04,29,00,29,7.30
2014,04,29,00,30,7.30
2014,04,29,00,31,7.30
2014,04,29,00,32,7.30
2014,04,29,00,33,7.30
2014,04,29,00,34,7.30
2014,04,29,00,35,7.30
2014,04,29,00,36,7.30
2014,04,29,00,37,7.30
2014,04,29,00,38,7.30
2014,04,29,00,39,7.30
2014,04,29,00,40,7.30
2014,04,29,00,41,7.20
2014,04,29,00,42,7.20
2014,04,29,00,43,7.20
2014,04,29,00,44,7.20
2014,04,29,00,45,7.20
2014,04,29,00,46,7.20
2014,04,29,00,47,7.20
2014,04,29,00,48,7.20
2014,04,29,00,49,7.20
2014,04,29,00,50,7.20
2014,04,29,00,51,7.20
2014,04,29,00,52,7.10
2014,04,29,00,53,7.10
2014,04,29,00,54,7.10
2014,04,29,00,55,7.10
2014,04,29,00,56,7.10
2014,04,29,00,57,7.10
2014,04,29,00,58,7.10
2014,04,29,00,59,7.00
2014,04,29,01,00,7.00
2014,04,29,01,01,7.00
2014,04,29,01,02,7.00
2014,04,29,01,03,7.00
2014,04,29,01,04,6.90
2014,04,29,01,05,6.90
2014,04,29,01,06,6.90
2014,04,29,01,07,6.90
2014,04,29,01,08,6.90
2014,04,29,01,09,6.90
2014,04,29,01,10,6.90
2014,04,29,01,11,6.80
2014,04,29,01,12,6.80
2014,04,29,01,13,6.80
2014,04,29,01,14,6.80
2014,04,29,01,15,6.80
2014,04,29,01,16,6.80
2014,04,29,01,17,6.80
2014,04,29,01,18,6.80
2014,04,29,01,19,6.80
2014,04,29,01,20,6.70
2014,04,29,01,21,6.70
2014,04,29,01,22,6.70
2014,04,29,01,23,6.70
2014,04,29,01,24,6.70
2014,04,29,01,25,6.70
2014,04,29,01,26,6.70
2014,04,29,01,27,6.60
2014,04,29,01,28,6.60
2014,04,29,01,29,6.60
2014,04,29,01,30,6.60
2014,04,29,01,31,6.60
2014,04,29,01,32,6.60
2014,04,29,01,33,6.60
2014,04,29,01,34,6.60
2014,04,29,01,35,6.50
2014,04,29,01,36,6.50
2014,04,29,01,37,6.50
2014,04,29,01,38,6.50
2014,04,29,01,39,6.50
2014,04,29,01,40,6.50
2014,04,29,01,41,6.40
2014,04,29,01,42,6.40
2014,04,29,01,43,6.40
2014,04,29,01,44,6.40
2014,04,29,01,45,6.40
2014,04,29,01,46,6.40
2014,04,29,01,47,6.30
2014,04,29,01,48,6.30
2014,04,29,01,49,6.30
2014,04,29,01,50,6.30
2014,04,29,01,51,6.30
2014,04,29,01,52,6.30
2014,04,29,01,53,6.30
2014,04,29,01,54,6.30
2014,04,29,01,55,6.20
2014,04,29,01,56,6.20
2014,04,29,01,57,6.20
2014,04,29,01,58,6.20
2014,04,29,01,59,6.20
2014,04,29,02,00,6.20
2014,04,29,02,01,6.20
2014,04,29,02,02,6.10
2014,04,29,02,03,6.10
2014,04,29,02,04,6.10
2014,04,29,02,05,6.10
2014,04,29,02,06,6.10
2014,04,29,02,07,6.10
2014,04,29,02,08,6.00
2014,04,29,02,09,6.00
2014,04,29,02,10,6.00
2014,04,29,02,11,6.00
2014,04,29,02,12,6.00
2014,04,29,02,13,6.00
2014,04,29,02,14,5.90
2014,04,29,02,15,5.90
2014,04,29,02,16,5.90
2014,04,29,02,17,5.90
2014,04,29,02,18,5.90
2014,04,29,02,19,5.90
2014,04,29,02,20,5.90
2014,04,29,02,21,5.90
2014,04,29,02,22,5.90
2014,04,29,02,23,5.90
2014,04,29,02,24,5.80
2014,04,29,02,25,5.80
2014,04,29,02,26,5.80
2014,04,29,02,27,5.80
2014,04,29,02,28,5.80
2014,04,29,02,29,5.80
2014,04,29,02,30,5.80
2014,04,29,02,31,5.80
2014,04,29,02,32,5.80
2014,04,29,02,33,5.80
2014,04,29,02,34,5.80
2014,04,29,02,35,5.80
2014,04,29,02,36,5.80
2014,04,29,02,37,5.80
2014,04,29,02,38,5.80
2014,04,29,02,39,5.80
2014,04,29,02,40,5.80
2014,04,29,02,41,5.80
2014,04,29,02,42,5.80
2014,04,29,02,43,5.80
2014,04,29,02,44,5.80
2014,04,29,02,45,5.80
2014,04,29,02,46,5.80
2014,04,29,02,47,5.80
2014,04,29,02,48,5.80
2014,04,29,02,49,5.80
2014,04,29,02,50,5.80
2014,04,29,02,51,5.80
2014,04,29,02,52,5.80
2014,04,29,02,53,5.90
2014,04,29,02,54,5.90
2014,04,29,02,55,5.90
2014,04,29,02,56,5.90
2014,04,29,02,57,5.90
2014,04,29,02,58,5.90
2014,04,29,02,59,5.90
2014,04,29,03,00,5.90
2014,04,29,03,01,5.90
2014,04,29,03,02,5.90
2014,04,29,03,03,5.90
2014,04,29,03,06,6.00
2014,04,29,03,07,6.00
2014,04,29,03,08,6.00
2014,04,29,03,09,6.00
2014,04,29,03,10,6.00
2014,04,29,03,11,6.00
2014,04,29,03,12,6.00
2014,04,29,03,13,6.00
2014,04,29,03,14,6.00
2014,04,29,03,15,6.00
2014,04,29,03,16,6.00
2014,04,29,03,17,6.00
2014,04,29,03,18,6.00
2014,04,29,03,19,5.90
2014,04,29,03,20,5.90
2014,04,29,03,21,5.90
2014,04,29,03,22,5.90
2014,04,29,03,23,5.90
2014,04,29,03,24,5.90
2014,04,29,03,25,5.90
2014,04,29,03,26,5.90
2014,04,29,03,27,5.90
2014,04,29,03,28,5.90
2014,04,29,03,29,5.90
2014,04,29,03,30,5.90
2014,04,29,03,31,5.90
2014,04,29,03,32,5.90
2014,04,29,03,33,5.90
2014,04,29,03,34,5.90
2014,04,29,03,35,6.00
2014,04,29,03,36,6.00
2014,04,29,03,37,5.90
2014,04,29,03,38,6.00
2014,04,29,03,39,6.00
2014,04,29,03,40,6.00
2014,04,29,03,41,6.00
2014,04,29,03,42,6.00
2014,04,29,03,43,6.00
2014,04,29,03,44,6.00
2014,04,29,03,45,6.00
2014,04,29,03,46,6.00
2014,04,29,03,47,6.00
2014,04,29,03,48,6.00
2014,04,29,03,49,6.10
2014,04,29,03,50,6.10
2014,04,29,03,51,6.10
2014,04,29,03,52,6.10
2014,04,29,03,53,6.10
2014,04,29,03,54,6.10
2014,04,29,03,55,6.10
2014,04,29,03,56,6.10
2014,04,29,03,57,6.10
2014,04,29,03,58,6.10
2014,04,29,03,59,6.10
2014,04,29,04,00,6.10
2014,04,29,04,01,6.10
2014,04,29,04,02,6.10
2014,04,29,04,03,6.10
2014,04,29,04,04,6.10
2014,04,29,04,05,6.10
2014,04,29,04,06,6.10
2014,04,29,04,07,6.10
2014,04,29,04,08,6.10
2014,04,29,04,09,6.10
2014,04,29,04,10,6.10
2014,04,29,04,11,6.10
2014,04,29,04,12,6.10
2014,04,29,04,13,6.10
2014,04,29,04,14,6.10
2014,04,29,04,15,6.10
2014,04,29,04,16,6.10
2014,04,29,04,17,6.10
2014,04,29,04,18,6.10
2014,04,29,04,19,6.10
2014,04,29,04,20,6.00
2014,04,29,04,21,6.00
2014,04,29,04,22,6.00
2014,04,29,04,23,6.00
2014,04,29,04,24,6.00
2014,04,29,04,25,6.00
2014,04,29,04,26,6.00
2014,04,29,04,27,6.00
2014,04,29,04,28,6.00
2014,04,29,04,29,6.00
2014,04,29,04,30,6.00
2014,04,29,04,31,6.00
2014,04,29,04,32,6.00
2014,04,29,04,33,6.00
2014,04,29,04,34,6.00
2014,04,29,04,35,5.90
2014,04,29,04,36,5.90
2014,04,29,04,37,5.90
2014,04,29,04,38,5.90
2014,04,29,04,39,5.90
2014,04,29,04,40,5.90
2014,04,29,04,41,5.90
2014,04,29,04,42,5.90
2014,04,29,04,43,5.90
2014,04,29,04,44,5.90
2014,04,29,04,45,5.90
2014,04,29,04,46,5.90
2014,04,29,04,47,5.90
2014,04,29,04,48,5.90
2014,04,29,04,49,5.90
2014,04,29,04,50,5.90
2014,04,29,04,51,5.90
2014,04,29,04,52,5.90
2014,04,29,04,53,5.90
2014,04,29,04,54,5.90
2014,04,29,04,55,5.90
2014,04,29,04,56,5.90
2014,04,29,04,57,5.90
2014,04,29,04,58,5.90
2014,04,29,04,59,5.90
2014,04,29,05,00,5.90
2014,04,29,05,01,5.90
2014,04,29,05,02,5.90
2014,04,29,05,03,5.90
2014,04,29,05,04,5.90
2014,04,29,05,05,5.90
2014,04,29,05,06,5.90
2014,04,29,05,07,5.90
2014,04,29,05,08,5.90
2014,04,29,05,09,5.90
2014,04,29,05,10,5.90
2014,04,29,05,11,5.90
2014,04,29,05,12,5.90
2014,04,29,05,13,5.90
2014,04,29,05,14,5.90
2014,04,29,05,15,5.90
2014,04,29,05,16,5.90
2014,04,29,05,17,5.90
2014,04,29,05,18,5.90
2014,04,29,05,19,5.90
2014,04,29,05,20,5.90
2014,04,29,05,21,6.00
2014,04,29,05,22,5.90
2014,04,29,05,23,5.90
2014,04,29,05,24,5.90
2014,04,29,05,25,6.00
2014,04,29,05,26,6.00
2014,04,29,05,27,6.00
2014,04,29,05,28,6.00
2014,04,29,05,29,6.00
2014,04,29,05,30,6.00
2014,04,29,05,31,6.00
2014,04,29,05,32,6.00
2014,04,29,05,33,6.00
2014,04,29,05,34,6.00
2014,04,29,05,35,6.00
2014,04,29,05,36,6.00
2014,04,29,05,37,6.00
2014,04,29,05,38,6.00
2014,04,29,05,39,6.00
2014,04,29,05,40,6.00
2014,04,29,05,41,6.00
2014,04,29,05,42,6.00
2014,04,29,05,43,6.00
2014,04,29,05,44,6.00
2014,04,29,05,45,6.00
2014,04,29,05,46,6.00
2014,04,29,05,47,6.00
2014,04,29,05,48,6.00
2014,04,29,05,49,6.00
2014,04,29,05,50,6.00
2014,04,29,05,51,6.00
2014,04,29,05,52,6.00
2014,04,29,05,53,6.00
2014,04,29,05,54,6.00
2014,04,29,05,55,6.00
2014,04,29,05,56,6.00
2014,04,29,05,57,6.00
2014,04,29,05,58,6.00
2014,04,29,05,59,6.10
2014,04,29,06,00,6.10
2014,04,29,06,01,6.10
2014,04,29,06,02,6.10
2014,04,29,06,03,6.10
2014,04,29,06,04,6.10
2014,04,29,06,05,6.10
2014,04,29,06,06,6.10
2014,04,29,06,07,6.10
2014,04,29,06,08,6.10
2014,04,29,06,09,6.10
2014,04,29,06,10,6.10
2014,04,29,06,11,6.10
2014,04,29,06,12,6.10
2014,04,29,06,13,6.10
2014,04,29,06,14,6.10
2014,04,29,06,15,6.10
2014,04,29,06,16,6.10
2014,04,29,06,17,6.10
2014,04,29,06,18,6.10
2014,04,29,06,19,6.10
2014,04,29,06,20,6.20
2014,04,29,06,21,6.20
2014,04,29,06,22,6.20
2014,04,29,06,23,6.20
2014,04,29,06,24,6.20
2014,04,29,06,25,6.20
2014,04,29,06,26,6.20
2014,04,29,06,27,6.20
2014,04,29,06,28,6.20
2014,04,29,06,29,6.20
2014,04,29,06,30,6.20
2014,04,29,06,31,6.20
2014,04,29,06,32,6.20
2014,04,29,06,33,6.20
2014,04,29,06,34,6.20
2014,04,29,06,35,6.30
2014,04,29,06,36,6.30
2014,04,29,06,37,6.30
2014,04,29,06,38,6.30
2014,04,29,06,39,6.30
2014,04,29,06,40,6.30
2014,04,29,06,41,6.30
2014,04,29,06,42,6.30
2014,04,29,06,43,6.30
2014,04,29,06,44,6.40
2014,04,29,06,45,6.40
2014,04,29,06,46,6.40
2014,04,29,06,47,6.40
2014,04,29,06,48,6.40
2014,04,29,06,49,6.40
2014,04,29,06,50,6.40
2014,04,29,06,51,6.40
2014,04,29,06,52,6.40
2014,04,29,06,53,6.40
2014,04,29,06,54,6.50
2014,04,29,06,55,6.50
2014,04,29,06,56,6.50
2014,04,29,06,57,6.50
2014,04,29,06,58,6.50
2014,04,29,06,59,6.60
2014,04,29,07,00,6.60
2014,04,29,07,01,6.60
2014,04,29,07,02,6.60
2014,04,29,07,03,6.60
2014,04,29,07,04,6.60
2014,04,29,07,05,6.70
2014,04,29,07,06,6.70
2014,04,29,07,07,6.70
2014,04,29,07,08,6.70
2014,04,29,07,09,6.70
2014,04,29,07,10,6.70
2014,04,29,07,11,6.70
2014,04,29,07,12,6.80
2014,04,29,07,13,6.80
2014,04,29,07,14,6.80
2014,04,29,07,15,6.80
2014,04,29,07,16,6.80
2014,04,29,07,17,6.80
2014,04,29,07,18,6.80
2014,04,29,07,19,6.80
2014,04,29,07,20,6.90
2014,04,29,07,21,6.90
2014,04,29,07,22,6.90
2014,04,29,07,23,6.90
2014,04,29,07,24,6.90
2014,04,29,07,25,6.90
2014,04,29,07,26,6.90
2014,04,29,07,27,6.90
2014,04,29,07,28,7.00
2014,04,29,07,29,7.00
2014,04,29,07,30,7.00
2014,04,29,07,31,7.00
2014,04,29,07,32,7.10
2014,04,29,07,33,7.10
2014,04,29,07,34,7.10
2014,04,29,07,35,7.10
2014,04,29,07,36,7.20
2014,04,29,07,37,7.20
2014,04,29,07,38,7.20
2014,04,29,07,39,7.20
2014,04,29,07,40,7.20
2014,04,29,07,41,7.20
2014,04,29,07,42,7.20
2014,04,29,07,43,7.20
2014,04,29,07,44,7.30
2014,04,29,07,45,7.30
2014,04,29,07,46,7.30
2014,04,29,07,47,7.30
2014,04,29,07,48,7.30
2014,04,29,07,49,7.40
2014,04,29,07,50,7.40
2014,04,29,07,51,7.40
2014,04,29,07,52,7.40
2014,04,29,07,53,7.40
2014,04,29,07,54,7.50
2014,04,29,07,55,7.50
2014,04,29,07,56,7.50
2014,04,29,07,57,7.60
2014,04,29,07,58,7.60
2014,04,29,07,59,7.60
2014,04,29,08,00,7.70
2014,04,29,08,01,7.70
2014,04,29,08,02,7.70
2014,04,29,08,03,7.70
2014,04,29,08,04,7.80
2014,04,29,08,05,7.80
2014,04,29,08,06,7.80
2014,04,29,08,07,7.80
2014,04,29,08,08,7.80
2014,04,29,08,09,7.90
2014,04,29,08,10,7.90
2014,04,29,08,11,7.90
2014,04,29,08,12,8.00
2014,04,29,08,13,8.00
2014,04,29,08,14,8.10
2014,04,29,08,15,8.10
2014,04,29,08,16,8.10
2014,04,29,08,17,8.20
2014,04,29,08,18,8.20
2014,04,29,08,19,8.20
2014,04,29,08,20,8.20
2014,04,29,08,21,8.20
2014,04,29,08,22,8.30
2014,04,29,08,23,8.30
2014,04,29,08,24,8.30
2014,04,29,08,25,8.30
2014,04,29,08,26,8.40
2014,04,29,08,27,8.40
2014,04,29,08,28,8.40
2014,04,29,08,29,8.40
2014,04,29,08,30,8.50
2014,04,29,08,31,8.50
2014,04,29,08,32,8.60
2014,04,29,08,33,8.60
2014,04,29,08,34,8.60
2014,04,29,08,35,8.60
2014,04,29,08,36,8.70
2014,04,29,08,37,8.70
2014,04,29,08,38,8.70
2014,04,29,08,39,8.80
2014,04,29,08,40,8.80
2014,04,29,08,41,8.90
2014,04,29,08,42,8.90
2014,04,29,08,43,9.00
2014,04,29,08,44,9.00
2014,04,29,08,45,9.10
2014,04,29,08,46,9.10
2014,04,29,08,47,9.20
2014,04,29,08,48,9.20
2014,04,29,08,49,9.30
2014,04,29,08,50,9.30
2014,04,29,08,51,9.40
2014,04,29,08,52,9.40
2014,04,29,08,53,9.50
2014,04,29,08,54,9.60
2014,04,29,08,55,9.60
2014,04,29,08,56,9.70
2014,04,29,08,57,9.70
2014,04,29,08,58,9.80
2014,04,29,08,59,9.80
2014,04,29,09,00,9.90
2014,04,29,09,01,9.90
2014,04,29,09,02,10.00
2014,04,29,09,03,10.00
2014,04,29,09,04,10.10
2014,04,29,09,05,10.10
2014,04,29,09,06,10.20
2014,04,29,09,07,10.20
2014,04,29,09,08,10.30
2014,04,29,09,09,10.30
2014,04,29,09,10,10.30
2014,04,29,09,11,10.40
2014,04,29,09,12,10.40
2014,04,29,09,13,10.50
2014,04,29,09,14,10.50
2014,04,29,09,15,10.60
2014,04,29,09,16,10.60
2014,04,29,09,17,10.70
2014,04,29,09,18,10.80
2014,04,29,09,19,10.90
2014,04,29,09,20,10.90
2014,04,29,09,21,11.00
2014,04,29,09,22,11.10
2014,04,29,09,23,11.10
2014,04,29,09,24,11.20
2014,04,29,09,25,11.30
2014,04,29,09,26,11.30
2014,04,29,09,27,11.40
2014,04,29,09,28,11.40
2014,04,29,09,29,11.50
2014,04,29,09,30,11.50
2014,04,29,09,31,11.50
2014,04,29,09,32,11.50
2014,04,29,09,33,11.60
2014,04,29,09,34,11.60
2014,04,29,09,35,11.60
2014,04,29,09,36,11.60
2014,04,29,09,37,11.70
2014,04,29,09,38,11.70
2014,04,29,09,39,11.70
2014,04,29,09,40,11.70
2014,04,29,09,41,11.70
2014,04,29,09,42,11.70
2014,04,29,09,43,11.70
2014,04,29,09,44,11.80
2014,04,29,09,45,11.80
2014,04,29,09,46,11.80
2014,04,29,09,47,11.80
2014,04,29,09,48,11.80
2014,04,29,09,49,11.90
2014,04,29,09,50,11.90
2014,04,29,09,51,11.90
2014,04,29,09,52,11.90
2014,04,29,09,53,12.00
2014,04,29,09,54,12.00
2014,04,29,09,55,12.10
2014,04,29,09,56,12.10
2014,04,29,09,57,12.20
2014,04,29,09,58,12.20
2014,04,29,09,59,12.20
2014,04,29,10,00,12.30
2014,04,29,10,01,12.30
2014,04,29,10,02,12.30
2014,04,29,10,03,12.30
2014,04,29,10,04,12.40
2014,04,29,10,05,12.40
2014,04,29,10,06,12.40
2014,04,29,10,07,12.40
2014,04,29,10,08,12.40
2014,04,29,10,09,12.50
2014,04,29,10,10,12.40
2014,04,29,10,11,12.40
2014,04,29,10,12,12.40
2014,04,29,10,13,12.40
2014,04,29,10,14,12.40
2014,04,29,10,15,12.40
2014,04,29,10,16,12.40
2014,04,29,10,17,12.40
2014,04,29,10,18,12.50
2014,04,29,10,19,12.50
2014,04,29,10,20,12.50
2014,04,29,10,21,12.60
2014,04,29,10,22,12.60
2014,04,29,10,23,12.60
2014,04,29,10,24,12.60
2014,04,29,10,25,12.60
2014,04,29,10,26,12.60
2014,04,29,10,27,12.60
2014,04,29,10,28,12.60
2014,04,29,10,29,12.60
2014,04,29,10,30,12.60
2014,04,29,10,31,12.60
2014,04,29,10,32,12.70
2014,04,29,10,33,12.70
2014,04,29,10,34,12.80
2014,04,29,10,35,12.80
2014,04,29,10,36,12.80
2014,04,29,10,37,12.90
2014,04,29,10,38,12.90
2014,04,29,10,39,12.90
2014,04,29,10,40,12.90
2014,04,29,10,41,13.00
2014,04,29,10,42,13.00
2014,04,29,10,43,13.00
2014,04,29,10,44,13.10
2014,04,29,10,45,13.10
2014,04,29,10,46,13.10
2014,04,29,10,47,13.10
2014,04,29,10,48,13.20
2014,04,29,10,49,13.20
2014,04,29,10,50,13.20
2014,04,29,10,51,13.20
2014,04,29,10,52,13.20
2014,04,29,10,53,13.20
2014,04,29,10,54,13.20
2014,04,29,10,55,13.20
2014,04,29,10,56,13.20
2014,04,29,10,57,13.20
2014,04,29,10,58,13.20
2014,04,29,10,59,13.20
2014,04,29,11,00,13.20
2014,04,29,11,01,13.20
2014,04,29,11,02,13.20
2014,04,29,11,03,13.20
2014,04,29,11,04,13.20
2014,04,29,11,05,13.20
2014,04,29,11,06,13.20
2014,04,29,11,07,13.20
2014,04,29,11,08,13.20
2014,04,29,11,09,13.20
2014,04,29,11,10,13.20
2014,04,29,11,11,13.30
2014,04,29,11,12,13.30
2014,04,29,11,13,13.30
2014,04,29,11,14,13.40
2014,04,29,11,15,13.40
2014,04,29,11,16,13.40
2014,04,29,11,17,13.40
2014,04,29,11,18,13.40
2014,04,29,11,19,13.40
2014,04,29,11,20,13.40
2014,04,29,11,21,13.50
2014,04,29,11,22,13.50
2014,04,29,11,23,13.50
2014,04,29,11,24,13.50
2014,04,29,11,25,13.50
2014,04,29,11,26,13.50
2014,04,29,11,27,13.50
2014,04,29,11,28,13.50
2014,04,29,11,29,13.50
2014,04,29,11,30,13.50
2014,04,29,11,31,13.50
2014,04,29,11,32,13.60
2014,04,29,11,33,13.60
2014,04,29,11,34,13.60
2014,04,29,11,35,13.70
2014,04,29,11,36,13.70
2014,04,29,11,37,13.70
2014,04,29,11,38,13.80
2014,04,29,11,39,13.90
2014,04,29,11,40,13.90
2014,04,29,11,41,13.90
2014,04,29,11,42,13.90
2014,04,29,11,43,13.90
2014,04,29,11,44,13.80
2014,04,29,11,45,13.80
2014,04,29,11,46,13.70
2014,04,29,11,47,13.70
2014,04,29,11,48,13.70
2014,04,29,11,49,13.70
2014,04,29,11,50,13.60
2014,04,29,11,51,13.60
2014,04,29,11,52,13.60
2014,04,29,11,53,13.60
2014,04,29,11,54,13.60
2014,04,29,11,55,13.70
2014,04,29,11,56,13.70
2014,04,29,11,57,13.80
2014,04,29,11,58,13.90
2014,04,29,11,59,13.90
2014,04,29,12,00,14.00
2014,04,29,12,01,14.10
2014,04,29,12,02,14.20
2014,04,29,12,03,14.20
2014,04,29,12,04,14.30
2014,04,29,12,05,14.30
2014,04,29,12,06,14.30
2014,04,29,12,07,14.40
2014,04,29,12,08,14.40
2014,04,29,12,09,14.40
2014,04,29,12,10,14.40
2014,04,29,12,11,14.50
2014,04,29,12,12,14.50
2014,04,29,12,13,14.60
2014,04,29,12,14,14.70
2014,04,29,12,15,14.70
2014,04,29,12,16,14.70
2014,04,29,12,17,14.80
2014,04,29,12,18,14.80
2014,04,29,12,19,14.90
2014,04,29,12,20,15.00
2014,04,29,12,21,15.00
2014,04,29,12,22,15.00
2014,04,29,12,23,15.00
2014,04,29,12,24,15.00
2014,04,29,12,25,15.10
2014,04,29,12,26,15.10
2014,04,29,12,27,15.10
2014,04,29,12,28,15.10
2014,04,29,12,29,15.20
2014,04,29,12,30,15.20
2014,04,29,12,31,15.20
2014,04,29,12,32,15.30
2014,04,29,12,33,15.30
2014,04,29,12,34,15.40
2014,04,29,12,35,15.40
2014,04,29,12,36,15.50
2014,04,29,12,37,15.50
2014,04,29,12,38,15.50
2014,04,29,12,39,15.50
2014,04,29,12,40,15.50
2014,04,29,12,41,15.50
2014,04,29,12,42,15.60
2014,04,29,12,43,15.60
2014,04,29,12,44,15.60
2014,04,29,12,45,15.70
2014,04,29,12,46,15.70
2014,04,29,12,47,15.70
2014,04,29,12,48,15.70
2014,04,29,12,49,15.80
2014,04,29,12,50,15.80
2014,04,29,12,51,15.80
2014,04,29,12,52,15.80
2014,04,29,12,53,15.80
2014,04,29,12,54,15.80
2014,04,29,12,55,15.90
2014,04,29,12,56,15.90
2014,04,29,12,57,16.00
2014,04,29,12,58,16.00
2014,04,29,12,59,16.10
2014,04,29,13,00,16.10
2014,04,29,13,01,16.10
2014,04,29,13,02,16.00
2014,04,29,13,03,16.00
2014,04,29,13,04,15.90
2014,04,29,13,05,16.00
2014,04,29,13,06,16.00
2014,04,29,13,07,16.00
2014,04,29,13,08,16.00
2014,04,29,13,09,16.10
2014,04,29,13,10,16.10
2014,04,29,13,11,16.10
2014,04,29,13,12,16.10
2014,04,29,13,13,16.10
2014,04,29,13,14,16.10
2014,04,29,13,15,16.20
2014,04,29,13,16,16.20
2014,04,29,13,17,16.30
2014,04,29,13,18,16.30
2014,04,29,13,19,16.40
2014,04,29,13,20,16.50
2014,04,29,13,21,16.60
2014,04,29,13,22,16.60
2014,04,29,13,23,16.70
2014,04,29,13,24,16.70
2014,04,29,13,25,16.70
2014,04,29,13,26,16.70
2014,04,29,13,27,16.70
2014,04,29,13,28,16.80
2014,04,29,13,29,16.90
2014,04,29,13,30,17.00
2014,04,29,13,31,17.10
2014,04,29,13,32,17.20
2014,04,29,13,33,17.20
2014,04,29,13,34,17.20
2014,04,29,13,35,17.20
2014,04,29,13,36,17.20
2014,04,29,13,37,17.10
2014,04,29,13,38,17.00
2014,04,29,13,39,16.90
2014,04,29,13,40,16.80
2014,04,29,13,41,16.80
2014,04,29,13,42,16.80
2014,04,29,13,43,16.80
2014,04,29,13,44,16.70
2014,04,29,13,45,16.70
2014,04,29,13,46,16.80
2014,04,29,13,47,16.90
2014,04,29,13,48,17.00
2014,04,29,13,49,17.10
2014,04,29,13,50,17.20
2014,04,29,13,51,17.20
2014,04,29,13,52,17.30
2014,04,29,13,53,17.30
2014,04,29,13,54,17.40
2014,04,29,13,55,17.40
2014,04,29,13,56,17.40
2014,04,29,13,57,17.50
2014,04,29,13,58,17.50
2014,04,29,13,59,17.50
2014,04,29,14,00,17.50
2014,04,29,14,01,17.50
2014,04,29,14,02,17.60
2014,04,29,14,03,17.60
2014,04,29,14,04,17.60
2014,04,29,14,05,17.60
2014,04,29,14,06,17.60
2014,04,29,14,07,17.70
2014,04,29,14,08,17.70
2014,04,29,14,09,17.70
2014,04,29,14,10,17.70
2014,04,29,14,11,17.60
2014,04,29,14,12,17.60
2014,04,29,14,13,17.50
2014,04,29,14,14,17.40
2014,04,29,14,15,17.40
2014,04,29,14,16,17.30
2014,04,29,14,17,17.30
2014,04,29,14,18,17.20
2014,04,29,14,19,17.30
2014,04,29,14,20,17.30
2014,04,29,14,21,17.30
2014,04,29,14,22,17.30
2014,04,29,14,23,17.30
2014,04,29,14,24,17.40
2014,04,29,14,25,17.40
2014,04,29,14,26,17.40
2014,04,29,14,27,17.40
2014,04,29,14,28,17.40
2014,04,29,14,29,17.40
2014,04,29,14,30,17.30
2014,04,29,14,31,17.30
2014,04,29,14,32,17.30
2014,04,29,14,33,17.30
2014,04,29,14,34,17.30
2014,04,29,14,35,17.30
2014,04,29,14,36,17.30
2014,04,29,14,37,17.30
2014,04,29,14,38,17.30
2014,04,29,14,39,17.30
2014,04,29,14,40,17.40
2014,04,29,14,41,17.40
2014,04,29,14,42,17.30
2014,04,29,14,43,17.30
2014,04,29,14,44,17.30
2014,04,29,14,45,17.40
2014,04,29,14,46,17.40
2014,04,29,14,47,17.40
2014,04,29,14,48,17.30
2014,04,29,14,49,17.30
2014,04,29,14,50,17.30
2014,04,29,14,51,17.30
2014,04,29,14,52,17.30
2014,04,29,14,53,17.30
2014,04,29,14,54,17.30
2014,04,29,14,55,17.30
2014,04,29,14,56,17.20
2014,04,29,14,57,17.20
2014,04,29,14,58,17.20
2014,04,29,14,59,17.20
2014,04,29,15,00,17.20
2014,04,29,15,01,17.20
2014,04,29,15,02,17.20
2014,04,29,15,03,17.20
2014,04,29,15,04,17.20
2014,04,29,15,05,17.30
2014,04,29,15,06,17.30
2014,04,29,15,07,17.40
2014,04,29,15,08,17.50
2014,04,29,15,09,17.60
2014,04,29,15,10,17.60
2014,04,29,15,11,17.60
2014,04,29,15,12,17.60
2014,04,29,15,13,17.60
2014,04,29,15,14,17.60
2014,04,29,15,15,17.60
2014,04,29,15,16,17.60
2014,04,29,15,17,17.60
2014,04,29,15,18,17.60
2014,04,29,15,19,17.60
2014,04,29,15,20,17.60
2014,04,29,15,21,17.70
2014,04,29,15,22,17.70
2014,04,29,15,23,17.70
2014,04,29,15,24,17.70
2014,04,29,15,25,17.80
2014,04,29,15,26,17.80
2014,04,29,15,27,17.80
2014,04,29,15,28,17.80
2014,04,29,15,29,17.70
2014,04,29,15,30,17.80
2014,04,29,15,31,17.80
2014,04,29,15,32,17.90
2014,04,29,15,33,17.90
2014,04,29,15,34,17.90
2014,04,29,15,35,17.90
2014,04,29,15,36,17.90
2014,04,29,15,37,17.90
2014,04,29,15,38,17.90
2014,04,29,15,39,17.90
2014,04,29,15,40,17.90
2014,04,29,15,41,17.90
2014,04,29,15,42,17.90
2014,04,29,15,43,17.90
2014,04,29,15,44,17.90
2014,04,29,15,45,17.90
2014,04,29,15,46,17.90
2014,04,29,15,47,17.90
2014,04,29,15,48,17.90
2014,04,29,15,49,17.90
2014,04,29,15,50,17.90
2014,04,29,15,51,17.90
2014,04,29,15,52,17.90
2014,04,29,15,53,17.90
2014,04,29,15,54,17.90
2014,04,29,15,55,17.90
2014,04,29,15,56,17.90
2014,04,29,15,57,17.90
2014,04,29,15,58,18.00
2014,04,29,15,59,18.00
2014,04,29,16,00,18.00
2014,04,29,16,01,18.10
2014,04,29,16,02,18.10
2014,04,29,16,03,18.10
2014,04,29,16,04,18.20
2014,04,29,16,05,18.20
2014,04,29,16,06,18.20
2014,04,29,16,07,18.30
2014,04,29,16,08,18.30
2014,04,29,16,09,18.30
2014,04,29,16,10,18.40
2014,04,29,16,11,18.40
2014,04,29,16,12,18.50
2014,04,29,16,13,18.60
2014,04,29,16,14,18.60
2014,04,29,16,15,18.70
2014,04,29,16,16,18.70
2014,04,29,16,17,18.70
2014,04,29,16,18,18.80
2014,04,29,16,19,18.80
2014,04,29,16,20,18.80
2014,04,29,16,21,18.80
2014,04,29,16,22,18.80
2014,04,29,16,23,18.80
2014,04,29,16,24,18.90
2014,04,29,16,25,18.90
2014,04,29,16,26,18.90
2014,04,29,16,27,18.90
2014,04,29,16,28,18.90
2014,04,29,16,29,19.00
2014,04,29,16,30,18.90
2014,04,29,16,31,18.90
2014,04,29,16,32,18.90
2014,04,29,16,33,18.90
2014,04,29,16,34,18.90
2014,04,29,16,35,18.90
2014,04,29,16,36,18.90
2014,04,29,16,37,19.00
2014,04,29,16,38,19.00
2014,04,29,16,39,19.10
2014,04,29,16,40,19.10
2014,04,29,16,41,19.20
2014,04,29,16,42,19.30
2014,04,29,16,43,19.40
2014,04,29,16,44,19.40
2014,04,29,16,45,19.50
2014,04,29,16,46,19.60
2014,04,29,16,47,19.60
2014,04,29,16,48,19.70
2014,04,29,16,49,19.70
2014,04,29,16,50,19.70
2014,04,29,16,51,19.80
2014,04,29,16,52,19.70
2014,04,29,16,53,19.70
2014,04,29,16,54,19.70
2014,04,29,16,55,19.60
2014,04,29,16,56,19.60
2014,04,29,16,57,19.50
2014,04,29,16,58,19.50
2014,04,29,16,59,19.60
2014,04,29,17,00,19.60
2014,04,29,17,01,19.60
2014,04,29,17,02,19.60
2014,04,29,17,03,19.60
2014,04,29,17,04,19.60
2014,04,29,17,05,19.60
2014,04,29,17,06,19.60
2014,04,29,17,07,19.60
2014,04,29,17,08,19.60
2014,04,29,17,09,19.60
2014,04,29,17,10,19.50
2014,04,29,17,11,19.50
2014,04,29,17,12,19.40
2014,04,29,17,13,19.40
2014,04,29,17,14,19.40
2014,04,29,17,15,19.40
2014,04,29,17,16,19.40
2014,04,29,17,17,19.40
2014,04,29,17,18,19.40
2014,04,29,17,19,19.40
2014,04,29,17,20,19.40
2014,04,29,17,21,19.40
2014,04,29,17,22,19.40
2014,04,29,17,23,19.40
2014,04,29,17,24,19.40
2014,04,29,17,25,19.40
2014,04,29,17,26,19.40
2014,04,29,17,27,19.40
2014,04,29,17,28,19.40
2014,04,29,17,29,19.50
2014,04,29,17,30,19.60
2014,04,29,17,31,19.60
2014,04,29,17,32,19.60
2014,04,29,17,33,19.70
2014,04,29,17,34,19.70
2014,04,29,17,35,19.70
2014,04,29,17,36,19.70
2014,04,29,17,37,19.60
2014,04,29,17,38,19.60
2014,04,29,17,39,19.60
2014,04,29,17,40,19.60
2014,04,29,17,41,19.60
2014,04,29,17,42,19.70
2014,04,29,17,43,19.70
2014,04,29,17,44,19.70